VJC1925 VVNB-VAAH

Flight info

Callsign VJC1925
Flight time 4h 59m
Altitude 32000
Route HUVAN2C BQ B214 LADON/N0475F280 B214 AKSAG B465 MDY/N0473F300 B465 CEA G450 JJS A791 BPL Z3 OSEPU G590 BODAR BODAR1A
Aircraft A21N/M-SDE3FGHIRWY/LB1

Departure

Time 2026-04-23 05:01
Airport Noi Bai International Airport (VVNB)

Arrival

Time 2026-04-23 10:00
Airport Sardar Vallabh Patel International Airport (VAAH)
Time Latitude Longitude Altitude Speed Heading
2026-04-23 04:42 21.21703 105.80172 47 ft 0 kts 197°
2026-04-23 04:52 21.21702 105.80172 48 ft 0 kts 197°
2026-04-23 04:53 21.21696 105.80170 48 ft 1 kts 197°
2026-04-23 04:53 21.21684 105.80164 48 ft 1 kts 220°
2026-04-23 04:53 21.21676 105.80148 49 ft 4 kts 253°
2026-04-23 04:53 21.21686 105.80106 49 ft 8 kts 301°
2026-04-23 04:54 21.21711 105.80055 49 ft 7 kts 293°
2026-04-23 04:54 21.21728 105.80002 50 ft 7 kts 287°
2026-04-23 04:54 21.21743 105.79951 50 ft 6 kts 297°
2026-04-23 04:54 21.21782 105.79923 51 ft 6 kts 354°
2026-04-23 04:55 21.21820 105.79940 51 ft 6 kts 30°
2026-04-23 04:55 21.21862 105.79957 51 ft 6 kts 16°
2026-04-23 04:55 21.21910 105.79954 51 ft 7 kts 324°
2026-04-23 04:55 21.21929 105.79898 50 ft 9 kts 286°
2026-04-23 04:56 21.21952 105.79820 50 ft 12 kts 285°
2026-04-23 04:56 21.21982 105.79718 50 ft 15 kts 288°
2026-04-23 04:56 21.22018 105.79598 50 ft 18 kts 287°
2026-04-23 04:56 21.22053 105.79468 50 ft 17 kts 288°
2026-04-23 04:57 21.22090 105.79346 51 ft 16 kts 288°
2026-04-23 04:57 21.22126 105.79227 51 ft 16 kts 287°
2026-04-23 04:57 21.22160 105.79108 50 ft 16 kts 287°
2026-04-23 04:57 21.22195 105.78988 49 ft 16 kts 288°
2026-04-23 04:58 21.22230 105.78869 49 ft 16 kts 287°
2026-04-23 04:58 21.22263 105.78756 50 ft 15 kts 288°
2026-04-23 04:58 21.22288 105.78670 51 ft 7 kts 285°
2026-04-23 04:58 21.22300 105.78624 51 ft 5 kts 287°
2026-04-23 04:59 21.22325 105.78600 51 ft 5 kts 347°
2026-04-23 04:59 21.22365 105.78611 51 ft 6 kts 19°
2026-04-23 04:59 21.22412 105.78629 51 ft 7 kts 18°
2026-04-23 04:59 21.22451 105.78643 52 ft 5 kts 34°
2026-04-23 05:00 21.22455 105.78684 51 ft 4 kts 107°
2026-04-23 05:00 21.22450 105.78700 51 ft 2 kts 107°
2026-04-23 05:00 21.22423 105.78794 50 ft 38 kts 107°
2026-04-23 05:00 21.22274 105.79317 52 ft 105 kts 107°
2026-04-23 05:01 21.21995 105.80273 50 ft 161 kts 107°
2026-04-23 05:01 21.21586 105.81521 279 ft 186 kts 108°
2026-04-23 05:01 21.21181 105.82858 813 ft 192 kts 102°
2026-04-23 05:01 21.20837 105.84216 1558 ft 190 kts 101°
2026-04-23 05:02 21.20489 105.85561 2140 ft 190 kts 102°
2026-04-23 05:02 21.20120 105.86965 2392 ft 202 kts 103°
2026-04-23 05:02 21.19714 105.88460 2638 ft 217 kts 104°
2026-04-23 05:02 21.19266 105.90076 2858 ft 234 kts 104°
2026-04-23 05:03 21.18787 105.91795 3163 ft 249 kts 105°
2026-04-23 05:03 21.18279 105.93607 3571 ft 259 kts 105°
2026-04-23 05:03 21.17760 105.95460 4135 ft 263 kts 106°
2026-04-23 05:03 21.17067 105.97267 4672 ft 267 kts 126°
2026-04-23 05:04 21.15671 105.98554 5212 ft 269 kts 155°
2026-04-23 05:04 21.13853 105.98985 5746 ft 271 kts 182°
2026-04-23 05:04 21.11975 105.98766 6332 ft 272 kts 187°
2026-04-23 05:04 21.10089 105.98521 6874 ft 275 kts 188°
2026-04-23 05:05 21.08179 105.98286 7396 ft 278 kts 188°
2026-04-23 05:05 21.06245 105.98058 7899 ft 281 kts 188°
2026-04-23 05:05 21.04289 105.97832 8376 ft 284 kts 189°
2026-04-23 05:05 21.02310 105.97605 8860 ft 287 kts 190°
2026-04-23 05:06 21.00311 105.97378 9337 ft 290 kts 191°
2026-04-23 05:06 20.98298 105.97113 9782 ft 291 kts 197°
2026-04-23 05:06 20.96481 105.96249 10153 ft 286 kts 221°
2026-04-23 05:06 20.95158 105.94659 10362 ft 291 kts 244°
2026-04-23 05:07 20.94385 105.92632 10565 ft 299 kts 252°
2026-04-23 05:07 20.93664 105.90498 10774 ft 311 kts 251°
2026-04-23 05:07 20.92905 105.88293 10973 ft 321 kts 251°
2026-04-23 05:07 20.92115 105.86036 11317 ft 326 kts 251°
2026-04-23 05:08 20.91317 105.83765 11777 ft 327 kts 250°
2026-04-23 05:08 20.90513 105.81490 12191 ft 329 kts 250°
2026-04-23 05:08 20.89701 105.79192 12578 ft 331 kts 250°
2026-04-23 05:08 20.89108 105.76817 12938 ft 334 kts 264°
2026-04-23 05:09 20.89246 105.74345 13275 ft 337 kts 282°
2026-04-23 05:09 20.90059 105.71987 13695 ft 340 kts 292°
2026-04-23 05:09 20.91050 105.69691 14116 ft 341 kts 292°
2026-04-23 05:09 20.92048 105.67384 14464 ft 344 kts 292°
2026-04-23 05:10 20.93049 105.65057 14802 ft 346 kts 292°
2026-04-23 05:10 20.94052 105.62713 15136 ft 348 kts 292°
2026-04-23 05:10 20.95058 105.60357 15491 ft 350 kts 292°
2026-04-23 05:10 20.96064 105.57989 15840 ft 351 kts 292°
2026-04-23 05:11 20.97075 105.55613 16195 ft 352 kts 292°
2026-04-23 05:11 20.98086 105.53225 16503 ft 354 kts 292°
2026-04-23 05:11 20.99104 105.50821 16804 ft 356 kts 292°
2026-04-23 05:11 21.00129 105.48405 17111 ft 358 kts 292°
2026-04-23 05:12 21.01168 105.45985 17436 ft 359 kts 294°
2026-04-23 05:12 21.02325 105.43610 17718 ft 362 kts 297°
2026-04-23 05:12 21.03614 105.41291 18021 ft 364 kts 298°
2026-04-23 05:12 21.04936 105.38982 18311 ft 365 kts 299°
2026-04-23 05:13 21.06265 105.36666 18604 ft 366 kts 298°
2026-04-23 05:13 21.07596 105.34345 18901 ft 367 kts 298°
2026-04-23 05:13 21.08934 105.32010 19191 ft 368 kts 298°
2026-04-23 05:14 21.11618 105.27315 19754 ft 369 kts 298°
2026-04-23 05:14 21.12960 105.24966 20038 ft 370 kts 298°
2026-04-23 05:14 21.14303 105.22614 20290 ft 371 kts 298°
2026-04-23 05:14 21.15650 105.20254 20554 ft 372 kts 298°
2026-04-23 05:15 21.17000 105.17890 20830 ft 373 kts 298°
2026-04-23 05:15 21.18352 105.15518 21060 ft 374 kts 297°
2026-04-23 05:15 21.19622 105.13088 21264 ft 374 kts 291°
2026-04-23 05:15 21.20467 105.10470 21479 ft 372 kts 281°
2026-04-23 05:16 21.20857 105.07741 21703 ft 371 kts 272°
2026-04-23 05:16 21.20921 105.04985 21970 ft 370 kts 270°
2026-04-23 05:16 21.20941 105.02227 22199 ft 371 kts 269°
2026-04-23 05:16 21.20959 104.99463 22427 ft 372 kts 269°
2026-04-23 05:17 21.20978 104.96690 22640 ft 373 kts 269°
2026-04-23 05:17 21.20997 104.93907 22855 ft 375 kts 270°
2026-04-23 05:17 21.21018 104.91119 23075 ft 375 kts 270°
2026-04-23 05:17 21.21038 104.88324 23301 ft 376 kts 270°
2026-04-23 05:18 21.21060 104.85526 23527 ft 376 kts 270°
2026-04-23 05:18 21.21080 104.82724 23746 ft 377 kts 270°
2026-04-23 05:18 21.21102 104.79916 23965 ft 378 kts 270°
2026-04-23 05:18 21.21123 104.77106 24185 ft 378 kts 270°
2026-04-23 05:19 21.21143 104.74287 24372 ft 380 kts 270°
2026-04-23 05:19 21.21164 104.71456 24555 ft 381 kts 270°
2026-04-23 05:19 21.21183 104.68615 24738 ft 382 kts 270°
2026-04-23 05:19 21.21203 104.65765 24928 ft 383 kts 270°
2026-04-23 05:20 21.21222 104.62907 25122 ft 384 kts 270°
2026-04-23 05:20 21.21240 104.60043 25307 ft 385 kts 270°
2026-04-23 05:20 21.21258 104.57175 25509 ft 385 kts 270°
2026-04-23 05:20 21.21276 104.54308 25699 ft 386 kts 270°
2026-04-23 05:21 21.21292 104.51430 25856 ft 387 kts 270°
2026-04-23 05:21 21.21309 104.48543 26020 ft 389 kts 270°
2026-04-23 05:21 21.21325 104.45651 26201 ft 389 kts 270°
2026-04-23 05:21 21.21343 104.42757 26394 ft 389 kts 270°
2026-04-23 05:22 21.21356 104.39855 26530 ft 391 kts 270°
2026-04-23 05:22 21.21372 104.36944 26671 ft 392 kts 270°
2026-04-23 05:22 21.21385 104.34029 26853 ft 392 kts 270°
2026-04-23 05:22 21.21398 104.31099 27018 ft 393 kts 270°
2026-04-23 05:23 21.21412 104.28202 27152 ft 395 kts 270°
2026-04-23 05:23 21.21425 104.25253 27297 ft 396 kts 270°
2026-04-23 05:23 21.21437 104.22305 27458 ft 397 kts 270°
2026-04-23 05:23 21.21451 104.19351 27627 ft 398 kts 270°
2026-04-23 05:24 21.21460 104.16394 27791 ft 398 kts 270°
2026-04-23 05:24 21.21471 104.13433 27957 ft 399 kts 270°
2026-04-23 05:24 21.21482 104.10465 28103 ft 400 kts 270°
2026-04-23 05:24 21.21491 104.07491 28261 ft 400 kts 270°
2026-04-23 05:25 21.21444 104.04516 28435 ft 401 kts 268°
2026-04-23 05:25 21.21257 104.01535 28590 ft 402 kts 265°
2026-04-23 05:25 21.20965 103.98543 28766 ft 402 kts 265°
2026-04-23 05:25 21.20667 103.95578 28987 ft 401 kts 264°
2026-04-23 05:26 21.20368 103.92619 29206 ft 400 kts 264°
2026-04-23 05:26 21.20069 103.89668 29437 ft 399 kts 265°
2026-04-23 05:26 21.19770 103.86720 29635 ft 399 kts 264°
2026-04-23 05:26 21.19470 103.83774 29835 ft 399 kts 264°
2026-04-23 05:27 21.19169 103.80829 30029 ft 399 kts 264°
2026-04-23 05:27 21.18869 103.77883 30211 ft 399 kts 264°
2026-04-23 05:27 21.18567 103.74934 30372 ft 400 kts 264°
2026-04-23 05:27 21.18264 103.71981 30542 ft 400 kts 264°
2026-04-23 05:28 21.17962 103.69029 30727 ft 400 kts 264°
2026-04-23 05:28 21.17656 103.66057 30873 ft 401 kts 264°
2026-04-23 05:28 21.17351 103.63113 31007 ft 402 kts 264°
2026-04-23 05:28 21.17045 103.60142 31155 ft 403 kts 264°
2026-04-23 05:29 21.16736 103.57168 31321 ft 403 kts 264°
2026-04-23 05:29 21.16427 103.54188 31461 ft 404 kts 264°
2026-04-23 05:29 21.16118 103.51205 31608 ft 404 kts 264°
2026-04-23 05:29 21.15808 103.48220 31771 ft 404 kts 264°
2026-04-23 05:30 21.15496 103.45235 31927 ft 405 kts 264°
2026-04-23 05:30 21.14870 103.39244 31936 ft 406 kts 264°
2026-04-23 05:31 21.14241 103.33246 31949 ft 407 kts 264°
2026-04-23 05:31 21.13610 103.27251 31954 ft 407 kts 264°
2026-04-23 05:32 21.12976 103.21240 31963 ft 407 kts 264°
2026-04-23 05:32 21.12341 103.15240 31974 ft 406 kts 264°
2026-04-23 05:33 21.11703 103.09248 31976 ft 406 kts 264°
2026-04-23 05:33 21.11064 103.03258 31969 ft 406 kts 264°
2026-04-23 05:34 21.10422 102.97262 31959 ft 406 kts 264°
2026-04-23 05:34 21.09780 102.91277 31947 ft 405 kts 264°
2026-04-23 05:35 21.09136 102.85302 31930 ft 405 kts 264°
2026-04-23 05:35 21.08491 102.79333 31908 ft 405 kts 264°
2026-04-23 05:36 21.07843 102.73355 31889 ft 405 kts 264°
2026-04-23 05:36 21.07195 102.67378 31894 ft 405 kts 264°
2026-04-23 05:37 21.06541 102.61404 31912 ft 405 kts 264°
2026-04-23 05:37 21.05886 102.55434 31935 ft 405 kts 264°
2026-04-23 05:38 21.05230 102.49464 31958 ft 405 kts 264°
2026-04-23 05:38 21.04573 102.43497 31970 ft 405 kts 264°
2026-04-23 05:39 21.03912 102.37529 31972 ft 404 kts 264°
2026-04-23 05:39 21.03250 102.31558 31972 ft 405 kts 264°
2026-04-23 05:40 21.02580 102.25552 31967 ft 405 kts 264°
2026-04-23 05:40 21.01912 102.19566 31966 ft 406 kts 264°
2026-04-23 05:41 21.01243 102.13584 31969 ft 404 kts 263°
2026-04-23 05:41 21.00572 102.07626 31972 ft 404 kts 264°
2026-04-23 05:42 20.99899 102.01669 31973 ft 405 kts 264°
2026-04-23 05:42 20.99224 101.95709 31978 ft 405 kts 264°
2026-04-23 05:43 20.98549 101.89739 31976 ft 405 kts 264°
2026-04-23 05:43 20.97869 101.83777 31975 ft 405 kts 264°
2026-04-23 05:44 20.97189 101.77824 31974 ft 404 kts 264°
2026-04-23 05:44 20.96509 101.71878 31967 ft 404 kts 263°
2026-04-23 05:45 20.95823 101.65916 31961 ft 405 kts 263°
2026-04-23 05:45 20.95134 101.59943 31957 ft 406 kts 264°
2026-04-23 05:46 20.94443 101.53977 31949 ft 405 kts 264°
2026-04-23 05:46 20.93751 101.48018 31930 ft 405 kts 264°
2026-04-23 05:47 20.93057 101.42049 31923 ft 405 kts 264°
2026-04-23 05:47 20.92363 101.36087 31925 ft 404 kts 264°
2026-04-23 05:48 20.91666 101.30150 31942 ft 405 kts 263°
2026-04-23 05:48 20.90965 101.24165 31950 ft 405 kts 264°
2026-04-23 05:49 20.90260 101.18205 31977 ft 405 kts 263°
2026-04-23 05:49 20.89562 101.12279 31983 ft 405 kts 263°
2026-04-23 05:50 20.88853 101.06293 31992 ft 405 kts 263°
2026-04-23 05:50 20.88143 101.00337 31995 ft 404 kts 264°
2026-04-23 05:51 20.87434 100.94381 31999 ft 405 kts 263°
2026-04-23 05:51 20.86722 100.88422 31992 ft 405 kts 264°
2026-04-23 05:52 20.86006 100.82459 31990 ft 406 kts 263°
2026-04-23 05:52 20.85288 100.76492 31986 ft 406 kts 263°
2026-04-23 05:53 20.84567 100.70524 31989 ft 406 kts 263°
2026-04-23 05:53 20.83844 100.64556 31988 ft 407 kts 264°
2026-04-23 05:54 20.83119 100.58575 31985 ft 407 kts 264°
2026-04-23 05:54 20.82639 100.52579 31978 ft 406 kts 269°
2026-04-23 05:55 20.82783 100.46578 31967 ft 405 kts 275°
2026-04-23 05:55 20.83554 100.40617 31951 ft 406 kts 280°
2026-04-23 05:56 20.84931 100.34752 31933 ft 408 kts 284°
2026-04-23 05:56 20.86501 100.28930 31917 ft 407 kts 284°
2026-04-23 05:57 20.88074 100.23118 31896 ft 408 kts 284°
2026-04-23 05:57 20.89646 100.17304 31895 ft 408 kts 284°
2026-04-23 05:58 20.91206 100.11535 31908 ft 408 kts 284°
2026-04-23 05:58 20.92790 100.05670 31925 ft 408 kts 284°
2026-04-23 05:59 20.94361 99.99845 31942 ft 408 kts 284°
2026-04-23 05:59 20.95928 99.94019 31959 ft 409 kts 284°
2026-04-23 06:00 20.97492 99.88191 31977 ft 408 kts 284°
2026-04-23 06:00 20.99055 99.82364 32002 ft 408 kts 284°
2026-04-23 06:01 21.00615 99.76547 32025 ft 407 kts 284°
2026-04-23 06:01 21.02168 99.70745 32041 ft 406 kts 284°
2026-04-23 06:02 21.03715 99.64957 32051 ft 404 kts 284°
2026-04-23 06:02 21.05262 99.59164 32056 ft 406 kts 284°
2026-04-23 06:03 21.06805 99.53368 32062 ft 405 kts 283°
2026-04-23 06:03 21.08345 99.47581 32072 ft 404 kts 284°
2026-04-23 06:04 21.09880 99.41792 32066 ft 405 kts 284°
2026-04-23 06:04 21.11411 99.36018 32056 ft 405 kts 284°
2026-04-23 06:05 21.12947 99.30219 32048 ft 405 kts 283°
2026-04-23 06:05 21.14477 99.24433 32039 ft 406 kts 283°
2026-04-23 06:06 21.16008 99.18635 32036 ft 405 kts 283°
2026-04-23 06:06 21.17533 99.12842 32035 ft 405 kts 283°
2026-04-23 06:07 21.19058 99.07053 32031 ft 405 kts 283°
2026-04-23 06:07 21.20580 99.01263 32025 ft 404 kts 283°
2026-04-23 06:08 21.22098 98.95476 32023 ft 405 kts 283°
2026-04-23 06:08 21.23614 98.89690 32031 ft 404 kts 283°
2026-04-23 06:09 21.25127 98.83904 32039 ft 404 kts 283°
2026-04-23 06:09 21.26639 98.78117 32032 ft 404 kts 283°
2026-04-23 06:10 21.28151 98.72323 32023 ft 404 kts 283°
2026-04-23 06:10 21.29660 98.66528 32001 ft 404 kts 283°
2026-04-23 06:11 21.31167 98.60733 31981 ft 404 kts 283°
2026-04-23 06:11 21.32674 98.54933 31964 ft 406 kts 283°
2026-04-23 06:12 21.34178 98.49127 31949 ft 404 kts 283°
2026-04-23 06:12 21.36432 98.40421 31949 ft 405 kts 283°
2026-04-23 06:13 21.37933 98.34605 31952 ft 404 kts 283°
2026-04-23 06:13 21.39434 98.28788 31954 ft 404 kts 283°
2026-04-23 06:14 21.40929 98.22980 31954 ft 405 kts 283°
2026-04-23 06:14 21.42422 98.17172 31963 ft 404 kts 283°
2026-04-23 06:15 21.43911 98.11369 31978 ft 404 kts 283°
2026-04-23 06:15 21.45396 98.05574 31996 ft 403 kts 283°
2026-04-23 06:16 21.46880 97.99777 32015 ft 404 kts 283°
2026-04-23 06:16 21.48363 97.93972 32023 ft 404 kts 283°
2026-04-23 06:17 21.49843 97.88171 32014 ft 403 kts 283°
2026-04-23 06:17 21.51317 97.82384 32004 ft 403 kts 283°
2026-04-23 06:18 21.52790 97.76588 31997 ft 403 kts 283°
2026-04-23 06:18 21.54260 97.70798 31996 ft 402 kts 283°
2026-04-23 06:19 21.55727 97.65018 32009 ft 402 kts 283°
2026-04-23 06:19 21.57190 97.59232 32022 ft 403 kts 283°
2026-04-23 06:20 21.58651 97.53451 32032 ft 402 kts 283°
2026-04-23 06:20 21.60108 97.47676 32037 ft 401 kts 283°
2026-04-23 06:21 21.61563 97.41905 32023 ft 401 kts 283°
2026-04-23 06:21 21.63013 97.36134 32004 ft 400 kts 283°
2026-04-23 06:22 21.64458 97.30384 31989 ft 401 kts 283°
2026-04-23 06:22 21.65908 97.24603 31972 ft 401 kts 283°
2026-04-23 06:23 21.67355 97.18819 31962 ft 401 kts 283°
2026-04-23 06:23 21.68796 97.13048 31962 ft 401 kts 283°
2026-04-23 06:24 21.70236 97.07279 31957 ft 400 kts 283°
2026-04-23 06:24 21.71673 97.01517 31952 ft 400 kts 283°
2026-04-23 06:25 21.73107 96.95752 31948 ft 400 kts 283°
2026-04-23 06:25 21.74540 96.89986 31956 ft 400 kts 283°
2026-04-23 06:26 21.75970 96.84220 31968 ft 400 kts 283°
2026-04-23 06:26 21.77396 96.78453 31966 ft 400 kts 283°
2026-04-23 06:27 21.78818 96.72696 31961 ft 399 kts 283°
2026-04-23 06:27 21.80239 96.66929 31928 ft 400 kts 283°
2026-04-23 06:28 21.81663 96.61161 31900 ft 400 kts 283°
2026-04-23 06:28 21.83083 96.55386 31877 ft 400 kts 283°
2026-04-23 06:29 21.84503 96.49599 31864 ft 401 kts 283°
2026-04-23 06:29 21.85926 96.43797 31863 ft 401 kts 283°
2026-04-23 06:30 21.87340 96.38006 31862 ft 401 kts 283°
2026-04-23 06:30 21.88759 96.32193 31864 ft 401 kts 282°
2026-04-23 06:31 21.90170 96.26403 31856 ft 400 kts 282°
2026-04-23 06:31 21.91578 96.20618 31844 ft 399 kts 283°
2026-04-23 06:32 21.92901 96.14819 31820 ft 400 kts 280°
2026-04-23 06:32 21.93765 96.08922 31788 ft 400 kts 275°
2026-04-23 06:33 21.94304 96.02969 31764 ft 401 kts 275°
2026-04-23 06:33 21.94831 95.97018 31741 ft 400 kts 274°
2026-04-23 06:34 21.95347 95.91069 31735 ft 400 kts 275°
2026-04-23 06:34 21.95861 95.85109 31734 ft 401 kts 275°
2026-04-23 06:35 21.96377 95.79144 31738 ft 400 kts 275°
2026-04-23 06:35 21.96889 95.73186 31739 ft 400 kts 274°
2026-04-23 06:36 21.97396 95.67233 31741 ft 400 kts 274°
2026-04-23 06:36 21.97904 95.61275 31744 ft 401 kts 274°
2026-04-23 06:37 21.98407 95.55317 31746 ft 400 kts 275°
2026-04-23 06:37 21.98908 95.49361 31747 ft 400 kts 275°
2026-04-23 06:38 21.99408 95.43399 31747 ft 400 kts 274°
2026-04-23 06:38 21.99905 95.37441 31746 ft 400 kts 274°
2026-04-23 06:39 22.00400 95.31482 31741 ft 400 kts 274°
2026-04-23 06:39 22.00891 95.25547 31735 ft 399 kts 274°
2026-04-23 06:40 22.01382 95.19604 31731 ft 399 kts 274°
2026-04-23 06:40 22.01870 95.13658 31731 ft 399 kts 274°
2026-04-23 06:41 22.02356 95.07707 31732 ft 399 kts 274°
2026-04-23 06:41 22.02838 95.01759 31737 ft 399 kts 274°
2026-04-23 06:42 22.03321 94.95782 31738 ft 399 kts 274°
2026-04-23 06:42 22.03800 94.89854 32357 ft 391 kts 274°
2026-04-23 06:43 22.04032 94.86976 32892 ft 383 kts 274°
2026-04-23 06:43 22.04261 94.84137 33255 ft 380 kts 274°
2026-04-23 06:43 22.04485 94.81331 33478 ft 379 kts 274°
2026-04-23 06:43 22.04711 94.78488 33683 ft 379 kts 274°
2026-04-23 06:44 22.05159 94.72841 33742 ft 379 kts 274°
2026-04-23 06:44 22.05603 94.67204 33753 ft 379 kts 274°
2026-04-23 06:45 22.06052 94.61504 33759 ft 386 kts 274°
2026-04-23 06:45 22.06505 94.55725 33765 ft 390 kts 274°
2026-04-23 06:46 22.06961 94.49909 33773 ft 389 kts 274°
2026-04-23 06:46 22.07411 94.44102 33787 ft 389 kts 274°
2026-04-23 06:47 22.07860 94.38320 33801 ft 389 kts 274°
2026-04-23 06:47 22.08306 94.32512 33820 ft 388 kts 273°
2026-04-23 06:48 22.08748 94.26739 33833 ft 388 kts 274°
2026-04-23 06:48 22.09193 94.20935 33842 ft 388 kts 274°
2026-04-23 06:49 22.09629 94.15192 33832 ft 387 kts 273°
2026-04-23 06:49 22.10064 94.09410 33820 ft 387 kts 273°
2026-04-23 06:50 22.10500 94.03632 33804 ft 387 kts 274°
2026-04-23 06:50 22.10930 93.97881 33790 ft 387 kts 274°
2026-04-23 06:51 22.11362 93.92099 33815 ft 387 kts 273°
2026-04-23 06:51 22.11790 93.86312 33853 ft 387 kts 273°
2026-04-23 06:52 22.12215 93.80563 33883 ft 387 kts 273°
2026-04-23 06:52 22.12641 93.74758 33913 ft 387 kts 273°
2026-04-23 06:53 22.13062 93.69005 33953 ft 387 kts 274°
2026-04-23 06:53 22.13479 93.63249 34001 ft 386 kts 273°
2026-04-23 06:54 22.13899 93.57479 34044 ft 386 kts 274°
2026-04-23 06:54 22.14313 93.51731 34081 ft 386 kts 274°
2026-04-23 06:55 22.14724 93.45969 34101 ft 386 kts 273°
2026-04-23 06:55 22.15135 93.40214 34099 ft 387 kts 274°
2026-04-23 06:56 22.15545 93.34450 34105 ft 387 kts 272°
2026-04-23 06:56 22.15951 93.28681 34102 ft 387 kts 273°
2026-04-23 06:57 22.16358 93.22877 34097 ft 387 kts 273°
2026-04-23 06:57 22.16762 93.17118 34086 ft 387 kts 272°
2026-04-23 06:58 22.17164 93.11339 34065 ft 387 kts 273°
2026-04-23 06:58 22.17564 93.05533 34039 ft 387 kts 273°
2026-04-23 06:59 22.17960 92.99786 34009 ft 387 kts 273°
2026-04-23 06:59 22.18356 92.94003 33972 ft 388 kts 273°
2026-04-23 07:00 22.18749 92.88222 33935 ft 388 kts 273°
2026-04-23 07:00 22.19141 92.82422 33894 ft 388 kts 273°
2026-04-23 07:01 22.19535 92.76586 33850 ft 389 kts 272°
2026-04-23 07:01 22.19921 92.70778 33821 ft 388 kts 272°
2026-04-23 07:02 22.20306 92.65001 33820 ft 388 kts 272°
2026-04-23 07:02 22.20670 92.59203 33821 ft 388 kts 272°
2026-04-23 07:03 22.21025 92.53366 33821 ft 388 kts 272°
2026-04-23 07:03 22.21377 92.47574 33819 ft 388 kts 272°
2026-04-23 07:04 22.21727 92.41785 33807 ft 388 kts 272°
2026-04-23 07:04 22.22072 92.36008 33795 ft 388 kts 272°
2026-04-23 07:05 22.22420 92.30193 33785 ft 388 kts 272°
2026-04-23 07:05 22.22792 92.24373 33775 ft 388 kts 272°
2026-04-23 07:06 22.23221 92.18581 33771 ft 388 kts 273°
2026-04-23 07:06 22.23644 92.12781 33771 ft 388 kts 273°
2026-04-23 07:07 22.24064 92.06994 33773 ft 389 kts 272°
2026-04-23 07:07 22.24479 92.01162 33773 ft 390 kts 272°
2026-04-23 07:08 22.24894 91.95343 33781 ft 391 kts 272°
2026-04-23 07:08 22.25304 91.89512 33790 ft 391 kts 272°
2026-04-23 07:09 22.25718 91.83676 33793 ft 390 kts 273°
2026-04-23 07:09 22.26356 91.77853 33794 ft 390 kts 275°
2026-04-23 07:10 22.27031 91.72039 33796 ft 390 kts 275°
2026-04-23 07:10 22.27694 91.66290 33797 ft 390 kts 275°
2026-04-23 07:11 22.28362 91.60476 33793 ft 389 kts 275°
2026-04-23 07:12 22.29357 91.51807 33788 ft 389 kts 275°
2026-04-23 07:12 22.30015 91.46022 33784 ft 389 kts 275°
2026-04-23 07:13 22.30673 91.40256 33778 ft 388 kts 275°
2026-04-23 07:13 22.31359 91.34474 33782 ft 389 kts 275°
2026-04-23 07:14 22.32085 91.28698 33785 ft 388 kts 275°
2026-04-23 07:14 22.32801 91.22952 33787 ft 388 kts 275°
2026-04-23 07:15 22.33514 91.17202 33789 ft 388 kts 275°
2026-04-23 07:15 22.34224 91.11437 33787 ft 388 kts 275°
2026-04-23 07:16 22.34935 91.05645 33781 ft 388 kts 275°
2026-04-23 07:16 22.35640 90.99876 33781 ft 389 kts 275°
2026-04-23 07:17 22.36343 90.94108 33780 ft 389 kts 275°
2026-04-23 07:17 22.37046 90.88336 33783 ft 389 kts 275°
2026-04-23 07:18 22.37750 90.82542 33780 ft 388 kts 275°
2026-04-23 07:18 22.38448 90.76762 33775 ft 389 kts 275°
2026-04-23 07:19 22.39141 90.70991 33775 ft 388 kts 275°
2026-04-23 07:19 22.39831 90.65247 33774 ft 388 kts 275°
2026-04-23 07:20 22.40525 90.59457 33772 ft 388 kts 275°
2026-04-23 07:20 22.41212 90.53689 33772 ft 388 kts 275°
2026-04-23 07:21 22.41900 90.47932 33770 ft 387 kts 275°
2026-04-23 07:21 22.42582 90.42175 33767 ft 387 kts 275°
2026-04-23 07:22 22.43265 90.36410 33767 ft 387 kts 275°
2026-04-23 07:22 22.43942 90.30666 33766 ft 387 kts 274°
2026-04-23 07:23 22.44620 90.24893 33766 ft 386 kts 274°
2026-04-23 07:23 22.45291 90.19160 33760 ft 386 kts 275°
2026-04-23 07:24 22.45960 90.13444 33767 ft 386 kts 274°
2026-04-23 07:24 22.46630 90.07694 33761 ft 385 kts 274°
2026-04-23 07:25 22.47298 90.01951 33762 ft 386 kts 274°
2026-04-23 07:25 22.47961 89.96210 33749 ft 385 kts 274°
2026-04-23 07:26 22.48623 89.90473 33748 ft 386 kts 274°
2026-04-23 07:26 22.49281 89.84740 33740 ft 386 kts 274°
2026-04-23 07:27 22.49939 89.79012 33741 ft 386 kts 275°
2026-04-23 07:27 22.50594 89.73265 33745 ft 386 kts 274°
2026-04-23 07:28 22.51249 89.67505 33739 ft 386 kts 275°
2026-04-23 07:28 22.51905 89.61746 33736 ft 385 kts 274°
2026-04-23 07:29 22.52553 89.56024 33740 ft 385 kts 274°
2026-04-23 07:29 22.53197 89.50307 33735 ft 386 kts 274°
2026-04-23 07:30 22.53842 89.44571 33733 ft 385 kts 274°
2026-04-23 07:30 22.54485 89.38825 33736 ft 385 kts 274°
2026-04-23 07:31 22.55125 89.33082 33741 ft 386 kts 274°
2026-04-23 07:31 22.55766 89.27333 33729 ft 386 kts 274°
2026-04-23 07:32 22.56402 89.21591 33728 ft 385 kts 274°
2026-04-23 07:32 22.57038 89.15833 33724 ft 386 kts 274°
2026-04-23 07:33 22.57671 89.10078 33726 ft 387 kts 274°
2026-04-23 07:33 22.58303 89.04315 33712 ft 387 kts 274°
2026-04-23 07:34 22.58928 88.98586 33714 ft 387 kts 274°
2026-04-23 07:34 22.59647 88.92825 33710 ft 387 kts 277°
2026-04-23 07:35 22.60607 88.87111 33711 ft 387 kts 277°
2026-04-23 07:35 22.61560 88.81431 33715 ft 387 kts 277°
2026-04-23 07:36 22.62521 88.75693 33723 ft 387 kts 277°
2026-04-23 07:36 22.63477 88.69971 33729 ft 386 kts 277°
2026-04-23 07:37 22.64432 88.64246 33730 ft 387 kts 277°
2026-04-23 07:37 22.65383 88.58523 33730 ft 387 kts 277°
2026-04-23 07:38 22.66330 88.52811 33723 ft 387 kts 277°
2026-04-23 07:38 22.67269 88.47095 33731 ft 387 kts 276°
2026-04-23 07:39 22.67876 88.41351 33731 ft 384 kts 272°
2026-04-23 07:39 22.68270 88.35599 33731 ft 384 kts 271°
2026-04-23 07:40 22.68658 88.29833 33731 ft 385 kts 271°
2026-04-23 07:40 22.69039 88.24093 33720 ft 383 kts 271°
2026-04-23 07:41 22.69420 88.18353 33715 ft 383 kts 271°
2026-04-23 07:41 22.69796 88.12605 33714 ft 384 kts 271°
2026-04-23 07:42 22.70168 88.06859 33707 ft 384 kts 271°
2026-04-23 07:42 22.70541 88.01116 33703 ft 383 kts 271°
2026-04-23 07:43 22.70910 87.95372 33705 ft 384 kts 271°
2026-04-23 07:43 22.71279 87.89623 33705 ft 384 kts 271°
2026-04-23 07:44 22.71645 87.83871 33701 ft 383 kts 271°
2026-04-23 07:44 22.72008 87.78122 33696 ft 383 kts 271°
2026-04-23 07:45 22.72369 87.72372 33690 ft 383 kts 271°
2026-04-23 07:45 22.72730 87.66629 33681 ft 383 kts 271°
2026-04-23 07:46 22.73087 87.60884 33680 ft 383 kts 271°
2026-04-23 07:46 22.73441 87.55139 33679 ft 383 kts 271°
2026-04-23 07:47 22.73795 87.49397 33685 ft 383 kts 271°
2026-04-23 07:47 22.74145 87.43651 33687 ft 383 kts 271°
2026-04-23 07:48 22.74494 87.37914 33692 ft 383 kts 271°
2026-04-23 07:48 22.74841 87.32162 33702 ft 383 kts 270°
2026-04-23 07:49 22.75187 87.26399 33705 ft 383 kts 270°
2026-04-23 07:49 22.75526 87.20693 33705 ft 384 kts 270°
2026-04-23 07:50 22.75867 87.14941 33704 ft 384 kts 270°
2026-04-23 07:50 22.76206 87.09192 33704 ft 383 kts 270°
2026-04-23 07:51 22.76542 87.03443 33702 ft 384 kts 270°
2026-04-23 07:51 22.76876 86.97700 33695 ft 383 kts 270°
2026-04-23 07:52 22.77210 86.91956 33695 ft 383 kts 270°
2026-04-23 07:52 22.77540 86.86208 33704 ft 383 kts 270°
2026-04-23 07:53 22.77868 86.80458 33713 ft 384 kts 270°
2026-04-23 07:53 22.78191 86.74694 33721 ft 384 kts 270°
2026-04-23 07:54 22.78519 86.68926 33728 ft 385 kts 270°
2026-04-23 07:54 22.78843 86.63145 33733 ft 385 kts 270°
2026-04-23 07:55 22.79164 86.57366 33741 ft 384 kts 270°
2026-04-23 07:55 22.79484 86.51595 33746 ft 385 kts 270°
2026-04-23 07:56 22.79800 86.45818 33752 ft 385 kts 270°
2026-04-23 07:56 22.80113 86.40048 33752 ft 385 kts 270°
2026-04-23 07:57 22.80427 86.34270 33751 ft 385 kts 269°
2026-04-23 07:57 22.80735 86.28488 33747 ft 385 kts 270°
2026-04-23 07:58 22.81041 86.22720 33744 ft 386 kts 269°
2026-04-23 07:58 22.81352 86.16921 33745 ft 386 kts 270°
2026-04-23 07:59 22.81824 86.11131 33743 ft 387 kts 271°
2026-04-23 07:59 22.82320 86.05341 33734 ft 387 kts 271°
2026-04-23 08:00 22.82803 85.99554 33731 ft 386 kts 271°
2026-04-23 08:00 22.83281 85.93767 33735 ft 387 kts 271°
2026-04-23 08:01 22.83756 85.87965 33739 ft 388 kts 271°
2026-04-23 08:01 22.84226 85.82155 33744 ft 387 kts 271°
2026-04-23 08:02 22.84696 85.76359 33744 ft 387 kts 271°
2026-04-23 08:02 22.85162 85.70559 33754 ft 388 kts 271°
2026-04-23 08:03 22.85629 85.64741 33762 ft 389 kts 270°
2026-04-23 08:03 22.86091 85.58921 33773 ft 389 kts 271°
2026-04-23 08:04 22.86553 85.53097 33781 ft 388 kts 271°
2026-04-23 08:04 22.87015 85.47274 33797 ft 389 kts 270°
2026-04-23 08:05 22.87471 85.41446 33799 ft 388 kts 271°
2026-04-23 08:05 22.87924 85.35622 33806 ft 389 kts 271°
2026-04-23 08:06 22.88377 85.29801 33818 ft 389 kts 271°
2026-04-23 08:06 22.88827 85.23982 33819 ft 388 kts 271°
2026-04-23 08:07 22.89277 85.18154 33831 ft 389 kts 270°
2026-04-23 08:07 22.89727 85.12302 33836 ft 390 kts 271°
2026-04-23 08:08 22.90186 85.06450 33841 ft 390 kts 271°
2026-04-23 08:08 22.90639 85.00619 33850 ft 389 kts 270°
2026-04-23 08:09 22.91088 84.94795 33855 ft 389 kts 270°
2026-04-23 08:09 22.91532 84.88961 33859 ft 389 kts 271°
2026-04-23 08:10 22.91978 84.83131 33870 ft 390 kts 270°
2026-04-23 08:10 22.92639 84.74375 33874 ft 389 kts 271°
2026-04-23 08:11 22.93079 84.68538 33884 ft 391 kts 270°
2026-04-23 08:11 22.93518 84.62678 33893 ft 390 kts 270°
2026-04-23 08:12 22.93952 84.56823 33902 ft 390 kts 271°
2026-04-23 08:12 22.94383 84.50980 33909 ft 389 kts 271°
2026-04-23 08:13 22.94817 84.45134 33917 ft 391 kts 270°
2026-04-23 08:13 22.95244 84.39270 33933 ft 390 kts 271°
2026-04-23 08:14 22.95669 84.33422 33946 ft 389 kts 270°
2026-04-23 08:14 22.96095 84.27574 33951 ft 389 kts 270°
2026-04-23 08:15 22.96513 84.21751 33949 ft 390 kts 270°
2026-04-23 08:15 22.96932 84.15878 33953 ft 390 kts 270°
2026-04-23 08:16 22.97321 84.10029 33955 ft 390 kts 269°
2026-04-23 08:16 22.97637 84.04166 33963 ft 390 kts 269°
2026-04-23 08:17 22.97951 83.98312 33952 ft 391 kts 269°
2026-04-23 08:17 22.98264 83.92440 33958 ft 390 kts 270°
2026-04-23 08:18 22.98578 83.86584 33960 ft 391 kts 270°
2026-04-23 08:18 22.98890 83.80696 33958 ft 392 kts 269°
2026-04-23 08:19 22.99198 83.74828 33962 ft 390 kts 269°
2026-04-23 08:19 22.99509 83.68952 33949 ft 392 kts 269°
2026-04-23 08:20 22.99816 83.63050 33946 ft 392 kts 269°
2026-04-23 08:20 23.00120 83.57153 33931 ft 392 kts 269°
2026-04-23 08:21 23.00424 83.51257 33931 ft 392 kts 269°
2026-04-23 08:21 23.00721 83.45366 33927 ft 392 kts 269°
2026-04-23 08:22 23.01018 83.39471 33924 ft 391 kts 269°
2026-04-23 08:22 23.01317 83.33579 33916 ft 392 kts 268°
2026-04-23 08:23 23.01609 83.27679 33908 ft 393 kts 269°
2026-04-23 08:23 23.01899 83.21770 33903 ft 393 kts 269°
2026-04-23 08:24 23.02193 83.15856 33896 ft 393 kts 268°
2026-04-23 08:24 23.02479 83.09944 33898 ft 394 kts 268°
2026-04-23 08:25 23.02765 83.04033 33892 ft 392 kts 268°
2026-04-23 08:25 23.03048 82.98121 33892 ft 394 kts 268°
2026-04-23 08:26 23.03328 82.92183 33880 ft 394 kts 268°
2026-04-23 08:26 23.03607 82.86240 33876 ft 394 kts 268°
2026-04-23 08:27 23.03887 82.80296 33862 ft 394 kts 268°
2026-04-23 08:27 23.04164 82.74359 34108 ft 395 kts 268°
2026-04-23 08:28 23.04302 82.71401 34413 ft 392 kts 268°
2026-04-23 08:28 23.04437 82.68454 34662 ft 391 kts 268°
2026-04-23 08:28 23.04573 82.65518 34902 ft 390 kts 268°
2026-04-23 08:28 23.04705 82.62597 35191 ft 387 kts 268°
2026-04-23 08:29 23.04837 82.59700 35482 ft 384 kts 267°
2026-04-23 08:29 23.04968 82.56817 35704 ft 383 kts 268°
2026-04-23 08:29 23.05100 82.53937 35852 ft 384 kts 267°
2026-04-23 08:29 23.05225 82.51064 35843 ft 383 kts 267°
2026-04-23 08:30 23.05483 82.45277 35860 ft 383 kts 267°
2026-04-23 08:30 23.05736 82.39509 35854 ft 383 kts 267°
2026-04-23 08:31 23.05986 82.33740 35854 ft 385 kts 266°
2026-04-23 08:31 23.06235 82.27980 35845 ft 385 kts 266°
2026-04-23 08:32 23.06483 82.22184 35845 ft 384 kts 267°
2026-04-23 08:32 23.06732 82.16397 35849 ft 385 kts 267°
2026-04-23 08:33 23.07078 82.10608 35857 ft 385 kts 268°
2026-04-23 08:33 23.07449 82.04812 35867 ft 384 kts 268°
2026-04-23 08:34 23.07808 81.99069 35873 ft 384 kts 268°
2026-04-23 08:34 23.08162 81.93305 35880 ft 384 kts 268°
2026-04-23 08:35 23.08516 81.87537 35877 ft 384 kts 268°
2026-04-23 08:35 23.08866 81.81768 35875 ft 384 kts 268°
2026-04-23 08:36 23.09215 81.75977 35882 ft 385 kts 267°
2026-04-23 08:36 23.09557 81.70207 35888 ft 385 kts 268°
2026-04-23 08:37 23.09904 81.64410 35901 ft 386 kts 267°
2026-04-23 08:37 23.10244 81.58581 35899 ft 386 kts 268°
2026-04-23 08:38 23.10585 81.52772 35916 ft 386 kts 267°
2026-04-23 08:38 23.10925 81.46981 35924 ft 388 kts 267°
2026-04-23 08:39 23.11262 81.41134 35930 ft 387 kts 268°
2026-04-23 08:39 23.11597 81.35314 35920 ft 388 kts 268°
2026-04-23 08:40 23.11930 81.29497 35929 ft 387 kts 268°
2026-04-23 08:40 23.12262 81.23664 35921 ft 388 kts 267°
2026-04-23 08:41 23.12591 81.17799 35925 ft 389 kts 267°
2026-04-23 08:41 23.12919 81.11942 35923 ft 389 kts 267°
2026-04-23 08:42 23.13245 81.06091 35918 ft 389 kts 267°
2026-04-23 08:42 23.13567 81.00236 35943 ft 390 kts 267°
2026-04-23 08:43 23.13889 80.94375 35931 ft 390 kts 267°
2026-04-23 08:43 23.14207 80.88509 35942 ft 389 kts 267°
2026-04-23 08:44 23.14525 80.82661 35934 ft 389 kts 267°
2026-04-23 08:44 23.14836 80.76795 35944 ft 390 kts 268°
2026-04-23 08:45 23.15161 80.70917 35934 ft 391 kts 268°
2026-04-23 08:45 23.15487 80.65020 35931 ft 393 kts 268°
2026-04-23 08:46 23.15813 80.59111 35934 ft 393 kts 268°
2026-04-23 08:46 23.16129 80.53197 35941 ft 394 kts 268°
2026-04-23 08:47 23.16448 80.47255 35934 ft 394 kts 268°
2026-04-23 08:47 23.16766 80.41326 35927 ft 394 kts 267°
2026-04-23 08:48 23.17081 80.35377 35922 ft 396 kts 267°
2026-04-23 08:48 23.17388 80.29416 35909 ft 396 kts 267°
2026-04-23 08:49 23.17697 80.23463 35888 ft 398 kts 268°
2026-04-23 08:49 23.18007 80.17457 35890 ft 398 kts 268°
2026-04-23 08:50 23.18313 80.11450 35874 ft 400 kts 268°
2026-04-23 08:50 23.18617 80.05431 35872 ft 399 kts 268°
2026-04-23 08:51 23.18891 79.99412 35864 ft 401 kts 267°
2026-04-23 08:51 23.19154 79.93361 35848 ft 403 kts 267°
2026-04-23 08:52 23.19415 79.87290 35848 ft 401 kts 268°
2026-04-23 08:52 23.19675 79.81246 35846 ft 403 kts 268°
2026-04-23 08:53 23.19934 79.75177 35844 ft 403 kts 268°
2026-04-23 08:53 23.20190 79.69099 35841 ft 405 kts 268°
2026-04-23 08:54 23.20443 79.63010 35835 ft 405 kts 268°
2026-04-23 08:54 23.20693 79.56900 35836 ft 406 kts 268°
2026-04-23 08:55 23.20837 79.50774 35832 ft 408 kts 266°
2026-04-23 08:55 23.20941 79.44624 35837 ft 408 kts 267°
2026-04-23 08:56 23.21046 79.38475 35837 ft 408 kts 266°
2026-04-23 08:56 23.21153 79.32309 35850 ft 410 kts 267°
2026-04-23 08:57 23.21259 79.26128 35853 ft 410 kts 266°
2026-04-23 08:57 23.21364 79.19961 35858 ft 411 kts 267°
2026-04-23 08:58 23.21466 79.13749 35862 ft 412 kts 267°
2026-04-23 08:58 23.21564 79.07539 35851 ft 412 kts 267°
2026-04-23 08:59 23.21662 79.01317 35848 ft 413 kts 267°
2026-04-23 08:59 23.21759 78.95081 35848 ft 414 kts 267°
2026-04-23 09:00 23.21849 78.88831 35848 ft 415 kts 267°
2026-04-23 09:00 23.21941 78.82577 35848 ft 415 kts 267°
2026-04-23 09:01 23.22028 78.76328 35846 ft 415 kts 267°
2026-04-23 09:01 23.22250 78.70065 35843 ft 416 kts 269°
2026-04-23 09:02 23.22560 78.63808 35840 ft 416 kts 269°
2026-04-23 09:02 23.22864 78.57540 35847 ft 417 kts 269°
2026-04-23 09:03 23.23168 78.51247 35834 ft 418 kts 269°
2026-04-23 09:03 23.23466 78.44954 35844 ft 418 kts 269°
2026-04-23 09:04 23.23764 78.38650 35845 ft 418 kts 269°
2026-04-23 09:04 23.24058 78.32352 35857 ft 419 kts 269°
2026-04-23 09:05 23.24350 78.26049 35859 ft 419 kts 269°
2026-04-23 09:05 23.24639 78.19739 35864 ft 419 kts 269°
2026-04-23 09:06 23.24927 78.13431 35866 ft 420 kts 269°
2026-04-23 09:06 23.25212 78.07093 35862 ft 421 kts 269°
2026-04-23 09:07 23.25495 78.00749 35856 ft 422 kts 270°
2026-04-23 09:07 23.25775 77.94388 35852 ft 423 kts 270°
2026-04-23 09:08 23.26056 77.88020 35849 ft 423 kts 270°
2026-04-23 09:08 23.26333 77.81651 35851 ft 423 kts 270°
2026-04-23 09:09 23.26607 77.75277 35853 ft 423 kts 270°
2026-04-23 09:09 23.26876 77.68890 35857 ft 424 kts 270°
2026-04-23 09:10 23.27282 77.59298 35861 ft 424 kts 270°
2026-04-23 09:11 23.27547 77.52901 35865 ft 425 kts 270°
2026-04-23 09:11 23.27810 77.46493 35866 ft 425 kts 270°
2026-04-23 09:12 23.27898 77.40092 35873 ft 424 kts 265°
2026-04-23 09:12 23.27272 77.33742 35881 ft 423 kts 258°
2026-04-23 09:13 23.25903 77.27533 35880 ft 423 kts 251°
2026-04-23 09:13 23.23863 77.21535 35891 ft 423 kts 248°
2026-04-23 09:14 23.21688 77.15631 35896 ft 423 kts 248°
2026-04-23 09:14 23.19507 77.09712 35897 ft 423 kts 248°
2026-04-23 09:15 23.17318 77.03777 35896 ft 424 kts 248°
2026-04-23 09:15 23.15129 76.97836 35894 ft 424 kts 248°
2026-04-23 09:16 23.12970 76.91892 35897 ft 424 kts 248°
2026-04-23 09:16 23.10813 76.85948 35897 ft 424 kts 248°
2026-04-23 09:17 23.08638 76.79967 35897 ft 425 kts 248°
2026-04-23 09:17 23.06479 76.74043 35901 ft 425 kts 248°
2026-04-23 09:18 23.04306 76.68085 35903 ft 425 kts 248°
2026-04-23 09:18 23.02119 76.62096 35893 ft 426 kts 248°
2026-04-23 09:19 22.99943 76.56151 35894 ft 426 kts 248°
2026-04-23 09:19 22.97746 76.50156 35885 ft 426 kts 248°
2026-04-23 09:20 22.95573 76.44237 35883 ft 427 kts 248°
2026-04-23 09:20 22.93372 76.38244 35887 ft 427 kts 248°
2026-04-23 09:21 22.91175 76.32277 35891 ft 427 kts 248°
2026-04-23 09:21 22.88970 76.26290 35889 ft 428 kts 248°
2026-04-23 09:22 22.86768 76.20322 35898 ft 427 kts 248°
2026-04-23 09:22 22.84567 76.14361 35893 ft 429 kts 248°
2026-04-23 09:23 22.82355 76.08383 35905 ft 430 kts 248°
2026-04-23 09:23 22.80127 76.02365 35904 ft 428 kts 248°
2026-04-23 09:24 22.77922 75.96420 35909 ft 428 kts 248°
2026-04-23 09:24 22.75701 75.90439 35921 ft 429 kts 248°
2026-04-23 09:25 22.73526 75.84441 35923 ft 429 kts 250°
2026-04-23 09:25 22.71835 75.78250 35920 ft 431 kts 256°
2026-04-23 09:26 22.70762 75.71886 35926 ft 431 kts 262°
2026-04-23 09:26 22.70253 75.65428 35921 ft 432 kts 265°
2026-04-23 09:27 22.69849 75.58952 35922 ft 432 kts 266°
2026-04-23 09:27 22.69438 75.52464 35917 ft 434 kts 266°
2026-04-23 09:28 22.69021 75.45965 35911 ft 433 kts 266°
2026-04-23 09:28 22.68600 75.39469 35901 ft 433 kts 266°
2026-04-23 09:29 22.68177 75.32978 35906 ft 434 kts 265°
2026-04-23 09:29 22.67751 75.26485 35900 ft 434 kts 265°
2026-04-23 09:29 22.67534 75.23202 35725 ft 435 kts 265°
2026-04-23 09:30 22.67319 75.19955 35478 ft 433 kts 266°
2026-04-23 09:30 22.67105 75.16737 35230 ft 432 kts 266°
2026-04-23 09:30 22.66890 75.13509 34976 ft 431 kts 266°
2026-04-23 09:30 22.66675 75.10287 34722 ft 430 kts 266°
2026-04-23 09:31 22.66458 75.07063 34482 ft 432 kts 266°
2026-04-23 09:31 22.66240 75.03826 34231 ft 433 kts 266°
2026-04-23 09:31 22.66021 75.00573 33977 ft 436 kts 266°
2026-04-23 09:31 22.65800 74.97302 33735 ft 438 kts 266°
2026-04-23 09:32 22.65577 74.94012 33478 ft 441 kts 266°
2026-04-23 09:32 22.65352 74.90707 33218 ft 443 kts 266°
2026-04-23 09:32 22.65127 74.87392 32962 ft 444 kts 266°
2026-04-23 09:32 22.64900 74.84069 32701 ft 445 kts 266°
2026-04-23 09:33 22.64672 74.80740 32445 ft 445 kts 266°
2026-04-23 09:33 22.64442 74.77406 32183 ft 446 kts 266°
2026-04-23 09:33 22.64211 74.74062 31861 ft 448 kts 266°
2026-04-23 09:33 22.63979 74.70709 31393 ft 449 kts 266°
2026-04-23 09:34 22.63744 74.67345 30790 ft 451 kts 267°
2026-04-23 09:34 22.63509 74.63974 30116 ft 451 kts 267°
2026-04-23 09:34 22.63272 74.60597 29408 ft 453 kts 267°
2026-04-23 09:34 22.63036 74.57207 28686 ft 454 kts 267°
2026-04-23 09:35 22.62799 74.53829 28212 ft 449 kts 267°
2026-04-23 09:35 22.62563 74.50484 27746 ft 445 kts 267°
2026-04-23 09:35 22.62328 74.47169 27275 ft 441 kts 266°
2026-04-23 09:35 22.62095 74.43886 26803 ft 437 kts 266°
2026-04-23 09:36 22.61863 74.40631 26333 ft 433 kts 266°
2026-04-23 09:36 22.61631 74.37402 25856 ft 430 kts 266°
2026-04-23 09:36 22.61401 74.34199 25377 ft 426 kts 266°
2026-04-23 09:36 22.61172 74.31023 24902 ft 423 kts 266°
2026-04-23 09:37 22.60943 74.27849 24419 ft 420 kts 266°
2026-04-23 09:37 22.60807 74.24703 23911 ft 417 kts 272°
2026-04-23 09:37 22.61104 74.21609 23413 ft 413 kts 282°
2026-04-23 09:37 22.61848 74.18630 22981 ft 413 kts 291°
2026-04-23 09:38 22.62905 74.15739 22538 ft 413 kts 294°
2026-04-23 09:38 22.64009 74.12891 22095 ft 410 kts 294°
2026-04-23 09:38 22.65110 74.10066 21653 ft 407 kts 294°
2026-04-23 09:38 22.66197 74.07261 21202 ft 404 kts 294°
2026-04-23 09:39 22.67269 74.04475 20751 ft 400 kts 294°
2026-04-23 09:39 22.68329 74.01708 20303 ft 397 kts 293°
2026-04-23 09:39 22.69376 73.98959 19852 ft 394 kts 293°
2026-04-23 09:39 22.70414 73.96232 19409 ft 391 kts 293°
2026-04-23 09:40 22.71442 73.93524 18962 ft 388 kts 293°
2026-04-23 09:40 22.72461 73.90837 18514 ft 385 kts 293°
2026-04-23 09:40 22.73472 73.88169 18065 ft 382 kts 293°
2026-04-23 09:40 22.74475 73.85521 17625 ft 380 kts 293°
2026-04-23 09:41 22.75469 73.82891 17185 ft 377 kts 293°
2026-04-23 09:41 22.76457 73.80281 16758 ft 374 kts 293°
2026-04-23 09:41 22.77438 73.77687 16326 ft 371 kts 293°
2026-04-23 09:41 22.78411 73.75111 15902 ft 369 kts 293°
2026-04-23 09:42 22.79378 73.72555 15470 ft 366 kts 292°
2026-04-23 09:42 22.80338 73.70013 15037 ft 363 kts 292°
2026-04-23 09:42 22.81290 73.67491 14603 ft 361 kts 292°
2026-04-23 09:42 22.82234 73.64987 14161 ft 359 kts 292°
2026-04-23 09:43 22.83172 73.62498 13722 ft 357 kts 292°
2026-04-23 09:43 22.84103 73.60023 13282 ft 354 kts 291°
2026-04-23 09:43 22.85028 73.57564 12844 ft 352 kts 291°
2026-04-23 09:43 22.85947 73.55121 12409 ft 350 kts 291°
2026-04-23 09:44 22.86859 73.52693 11979 ft 347 kts 291°
2026-04-23 09:44 22.87766 73.50281 11543 ft 345 kts 291°
2026-04-23 09:44 22.88665 73.47887 11123 ft 343 kts 291°
2026-04-23 09:44 22.89558 73.45508 10688 ft 340 kts 290°
2026-04-23 09:45 22.90443 73.43150 10316 ft 335 kts 290°
2026-04-23 09:45 22.91304 73.40858 10069 ft 320 kts 290°
2026-04-23 09:45 22.92114 73.38699 9971 ft 299 kts 290°
2026-04-23 09:45 22.92872 73.36675 9890 ft 283 kts 289°
2026-04-23 09:46 22.93598 73.34729 9815 ft 273 kts 289°
2026-04-23 09:46 22.94300 73.32847 9585 ft 267 kts 289°
2026-04-23 09:46 22.94990 73.30997 9320 ft 263 kts 289°
2026-04-23 09:46 22.95668 73.29179 9054 ft 258 kts 288°
2026-04-23 09:47 22.96330 73.27402 8791 ft 254 kts 288°
2026-04-23 09:47 22.96987 73.25639 8532 ft 250 kts 289°
2026-04-23 09:47 22.97634 73.23904 8270 ft 246 kts 288°
2026-04-23 09:47 22.98270 73.22196 8005 ft 242 kts 288°
2026-04-23 09:48 22.98896 73.20519 7748 ft 237 kts 289°
2026-04-23 09:48 22.99508 73.18876 7513 ft 232 kts 289°
2026-04-23 09:48 23.00106 73.17274 7339 ft 226 kts 289°
2026-04-23 09:48 23.00740 73.15706 7283 ft 228 kts 291°
2026-04-23 09:49 23.01404 73.14151 7233 ft 225 kts 291°
2026-04-23 09:49 23.02062 73.12618 6950 ft 225 kts 291°
2026-04-23 09:49 23.02719 73.11078 6594 ft 226 kts 292°
2026-04-23 09:49 23.03377 73.09536 6273 ft 225 kts 292°
2026-04-23 09:50 23.04034 73.07996 5947 ft 225 kts 292°
2026-04-23 09:50 23.04691 73.06455 5628 ft 225 kts 292°
2026-04-23 09:50 23.05347 73.04920 5318 ft 224 kts 292°
2026-04-23 09:50 23.06001 73.03391 5016 ft 223 kts 292°
2026-04-23 09:51 23.06649 73.01870 4723 ft 222 kts 292°
2026-04-23 09:51 23.07294 73.00359 4428 ft 220 kts 293°
2026-04-23 09:51 23.08091 72.98938 4116 ft 222 kts 306°
2026-04-23 09:51 23.09141 72.97701 3819 ft 222 kts 311°
2026-04-23 09:52 23.10231 72.96520 3548 ft 220 kts 312°
2026-04-23 09:52 23.11316 72.95349 3304 ft 219 kts 312°
2026-04-23 09:52 23.12394 72.94179 3197 ft 218 kts 312°
2026-04-23 09:52 23.13473 72.93004 3081 ft 218 kts 311°
2026-04-23 09:53 23.14523 72.91859 2963 ft 207 kts 311°
2026-04-23 09:53 23.15498 72.90797 2930 ft 190 kts 311°
2026-04-23 09:53 23.16388 72.89771 2802 ft 184 kts 303°
2026-04-23 09:53 23.16951 72.88541 2690 ft 181 kts 287°
2026-04-23 09:54 23.17407 72.87258 2581 ft 182 kts 291°
2026-04-23 09:54 23.17905 72.85993 2464 ft 182 kts 291°
2026-04-23 09:54 23.18416 72.84737 2348 ft 181 kts 292°
2026-04-23 09:54 23.18938 72.83488 2234 ft 181 kts 292°
2026-04-23 09:55 23.19465 72.82243 2118 ft 181 kts 293°
2026-04-23 09:55 23.19997 72.80997 2006 ft 182 kts 293°
2026-04-23 09:55 23.20524 72.79768 1968 ft 182 kts 293°
2026-04-23 09:55 23.21040 72.78489 1956 ft 182 kts 285°
2026-04-23 09:56 23.20912 72.77174 1923 ft 181 kts 238°
2026-04-23 09:56 23.20009 72.76204 1969 ft 184 kts 221°
2026-04-23 09:56 23.19008 72.75337 1967 ft 183 kts 222°
2026-04-23 09:56 23.18043 72.74431 1963 ft 183 kts 225°
2026-04-23 09:57 23.17115 72.73487 1961 ft 182 kts 226°
2026-04-23 09:57 23.16245 72.72567 1955 ft 162 kts 227°
2026-04-23 09:57 23.15483 72.71753 1875 ft 146 kts 227°
2026-04-23 09:57 23.14773 72.70990 1711 ft 142 kts 228°
2026-04-23 09:58 23.14073 72.70239 1529 ft 141 kts 228°
2026-04-23 09:58 23.13371 72.69486 1356 ft 142 kts 227°
2026-04-23 09:58 23.12665 72.68731 1183 ft 142 kts 227°
2026-04-23 09:58 23.11965 72.67988 1010 ft 143 kts 226°
2026-04-23 09:59 23.11258 72.67225 820 ft 143 kts 227°
2026-04-23 09:59 23.10552 72.66442 633 ft 143 kts 226°
2026-04-23 09:59 23.09844 72.65681 467 ft 143 kts 224°
2026-04-23 09:59 23.09124 72.64932 294 ft 143 kts 224°
2026-04-23 10:00 23.08431 72.64194 190 ft 133 kts 224°
2026-04-23 10:00 23.07890 72.63617 190 ft 84 kts 224°
2026-04-23 10:00 23.07589 72.63296 187 ft 42 kts 224°
2026-04-23 10:00 23.07385 72.63081 185 ft 38 kts 224°
2026-04-23 10:01 23.07223 72.62907 187 ft 20 kts 225°
2026-04-23 10:01 23.07180 72.62799 188 ft 9 kts 259°
2026-04-23 10:01 23.07167 72.62726 188 ft 10 kts 259°
2026-04-23 10:01 23.07153 72.62660 188 ft 9 kts 255°
2026-04-23 10:02 23.07162 72.62592 187 ft 9 kts 310°
2026-04-23 10:02 23.07210 72.62543 187 ft 9 kts 317°
2026-04-23 10:02 23.07260 72.62495 187 ft 9 kts 334°
2026-04-23 10:02 23.07317 72.62502 187 ft 5 kts 12°
2026-04-23 10:03 23.07348 72.62492 187 ft 4 kts 319°
2026-04-23 10:03 23.07360 72.62474 187 ft 2 kts 308°
2026-04-23 10:03 23.07364 72.62470 187 ft 0 kts 314°
2026-04-23 10:03 23.07369 72.62465 187 ft 0 kts 314°
2026-04-23 10:04 23.07370 72.62463 187 ft 0 kts 314°